Simultaneous Nadir Overpasses (SNOs) Predictions

Prediction of SNOs between NOAA-19 and METOP-C Satellite Orbit:

Table of predicted SNOs for the next 14.0 days since TLE Epoch: 11/11/2023
Index Date (NOAA-19) Time (NOAA-19) Lat,Lon (NOAA-19) SZA (NOAA-19 ) Date (METOP-C) Time (METOP-C) Lat,Lon (METOP-C) SZA (METOP-C ) Distance(km) Time Diff (sec)
1 11/15/2023 23:11:51 80.79,-135.79 101.04 11/15/2023 23:12:58 80.78,-135.94 101.05 2.88 67
2 11/16/2023 00:02:44 -80.80, 31.90 78.91 11/16/2023 00:03:39 -80.80, 31.74 78.90 2.81 55
3 11/16/2023 00:53:49 80.80,-161.05 101.09 11/16/2023 00:54:19 80.79,-161.05 101.09 0.52 30
4 11/16/2023 01:44:42 -80.81, 6.64 78.86 11/16/2023 01:45:00 -80.81, 6.63 78.85 0.46 18
5 11/16/2023 02:35:47 80.81, 173.70 101.13 11/16/2023 02:35:40 80.81, 173.83 101.14 2.36 7
6 11/16/2023 03:26:40 -80.82, -18.61 78.82 11/16/2023 03:26:21 -80.83, -18.49 78.81 2.39 19
7 11/16/2023 04:17:44 80.82, 148.81 101.22 11/16/2023 04:17:01 80.82, 148.71 101.19 1.69 43



Historial Predications of SNOs between NOAA-19 and METOP-C
